STARLINK-1892, 46743

Orbit data source: Space-Track

STARLINK-1892, 46743 is a payload satellite owned by SpaceX/Seattle (US) in LEO that was launched on Sat, 24 Oct 2020 UTC via an FALCON 9 launch vehicle from the Air Force Eastern Test Range (AFETR). Payload-class satellites include a variety of spacecraft equipped with specific instruments for various scientific and technological missions. These include communications satellites like Starlink; space stations such as the ISS; scientific satellites like the Hubble; Earth observation satellites from companies like Planet Labs, Umbra, and HawkEye 360; GPS; miniature CubeSats for education and research; and military/defense satellites.

Loading next visibility...
Identifier
46743, 2020-074E
Orbit
LEO
Country
Flag of USUS
Related business
Manufacturer
SpaceX/Seattle
Mission
Partially operational Commercial Communications
Bus & Motor
STARLINK, Unknown motor
Mass
260 kg wet, ~248 kg dry
Launch date (UTC)
2020-10-24 (5 years ago)
Launch vehicle
FALCON 9
Launch site
Air Force Eastern Test Range (AFETR)
Object type
Payload
Rocket body
Debris
Shape & HBR
Box + 1 Pan, 10.1 m
Radar Cross Section
13.562 m², Large (>1 m²)

Expand to show TLE details & history
Last TLE update: 11 hours ago

TLE from 11 hours ago
0 STARLINK-1892
1 46743U 20074E   26036.16425531  .00130980  00000-0  29567-2 0  9993
2 46743  53.0479  88.7807 0004936 278.2693  81.7752 15.42266094292047
Epoch: 2026-02-05T03:56Z
TLE epoch observation values (Epoch: 2026-02-05T03:56:31.658Z)
Latitude
-0.00001°
Longitude
-105.67163°
Altitude
439.835 km
Speed
7.65 km/s
True Right ascension
05h 55m 07s
True Declination
0° 00' 00"
Sunlit
Object was in full shadow at epoch
Visualization orbit readout
Latitude
Unknown
Longitude
Unknown
Altitude
Unknown
Speed
Unknown
Apparent Right ascension
Unknown
Apparent Declination
Unknown
Sunlit
N/A
Visualization observer readout
Local Sidereal Time
16:55:01
Azimuth
Unknown
Elevation
Unknown
Doppler factor
Unknown
Orbital elements
Apogee altitude
443.064 km
Perigee altitude
436.334 km
Semi-major axis
6,817.836 km
Eccentricity
0.00049
Inclination
53.0479°
RAAN
88.7807°
Arg. of periapsis
278.2693°
True anomaly
81.83119°
Mean anomaly
81.7752°
Eccentric anomaly
81.80319°
Mean motion
3.85543 °/min
Orbital period
93.37 mins
BSTAR
0.0029567
Loading maneuver chart data...
Computing Atmospheric mass density...

Documentation

Showing up to 5 results
|